LGX37B LICJ-LFKJ

Flight info

Callsign LGX37B
Flight time 0h 54m
Altitude 34000
Route GIANO DCT POZZO Q214 TEREZ
Aircraft B38M/M-SDE1FGHILORVWXY/HB1

Departure

Time 2026-05-07 16:29
Airport Falcone–Borsellino Airport (LICJ)

Arrival

Time 2026-05-07 17:23
Airport Ajaccio Napoléon Bonaparte airport (LFKJ)
Time Latitude Longitude Altitude Speed Heading
2026-05-07 16:18 38.18384 13.10396 61 ft 0 kts 68°
2026-05-07 16:23 38.18385 13.10399 62 ft 3 kts 67°
2026-05-07 16:23 38.18403 13.10453 62 ft 10 kts 66°
2026-05-07 16:24 38.18451 13.10561 61 ft 18 kts 64°
2026-05-07 16:24 38.18497 13.10707 61 ft 18 kts 75°
2026-05-07 16:24 38.18474 13.10855 61 ft 17 kts 107°
2026-05-07 16:24 38.18438 13.10940 60 ft 17 kts 128°
2026-05-07 16:25 38.18456 13.11081 54 ft 17 kts 68°
2026-05-07 16:25 38.18503 13.11227 55 ft 18 kts 67°
2026-05-07 16:25 38.18554 13.11379 61 ft 19 kts 67°
2026-05-07 16:25 38.18618 13.11582 61 ft 17 kts 87°
2026-05-07 16:26 38.18603 13.11689 56 ft 19 kts 96°
2026-05-07 16:26 38.18594 13.11801 52 ft 0 kts 96°
2026-05-07 16:27 38.18592 13.11819 50 ft 7 kts 99°
2026-05-07 16:27 38.18573 13.11868 42 ft 9 kts 130°
2026-05-07 16:28 38.18506 13.11843 38 ft 17 kts 247°
2026-05-07 16:28 38.18369 13.11429 36 ft 86 kts 247°
2026-05-07 16:28 38.18047 13.10469 39 ft 148 kts 246°
2026-05-07 16:28 38.17599 13.09166 483 ft 171 kts 247°
2026-05-07 16:29 38.17123 13.07730 1320 ft 178 kts 246°
2026-05-07 16:29 38.16612 13.06216 2014 ft 195 kts 246°
2026-05-07 16:29 38.16053 13.04563 2667 ft 212 kts 246°
2026-05-07 16:29 38.15560 13.02713 3424 ft 230 kts 258°
2026-05-07 16:30 38.15487 13.00609 4229 ft 248 kts 276°
2026-05-07 16:30 38.15983 12.98434 5034 ft 267 kts 296°
2026-05-07 16:30 38.17101 12.96510 5969 ft 276 kts 316°
2026-05-07 16:30 38.18680 12.95112 6963 ft 283 kts 330°
2026-05-07 16:31 38.20300 12.93660 7976 ft 286 kts 319°
2026-05-07 16:31 38.21669 12.91780 8925 ft 292 kts 306°
2026-05-07 16:31 38.22820 12.89609 9857 ft 301 kts 302°
2026-05-07 16:31 38.23972 12.87339 10566 ft 314 kts 302°
2026-05-07 16:32 38.25179 12.84932 11123 ft 331 kts 302°
2026-05-07 16:32 38.26459 12.82398 11609 ft 349 kts 302°
2026-05-07 16:32 38.27816 12.79753 12090 ft 365 kts 302°
2026-05-07 16:32 38.29362 12.77151 12853 ft 372 kts 315°
2026-05-07 16:33 38.31548 12.75345 13703 ft 381 kts 338°
2026-05-07 16:33 38.34101 12.74367 14500 ft 386 kts 341°
2026-05-07 16:33 38.36657 12.73274 15252 ft 390 kts 339°
2026-05-07 16:33 38.39244 12.72157 15967 ft 394 kts 339°
2026-05-07 16:34 38.41820 12.70923 16653 ft 397 kts 335°
2026-05-07 16:34 38.44318 12.69494 17297 ft 400 kts 332°
2026-05-07 16:34 38.46827 12.67929 17922 ft 403 kts 331°
2026-05-07 16:34 38.49369 12.66367 18529 ft 407 kts 332°
2026-05-07 16:35 38.51932 12.64881 19102 ft 411 kts 333°
2026-05-07 16:35 38.54589 12.63399 19668 ft 414 kts 334°
2026-05-07 16:35 38.57244 12.61918 20213 ft 417 kts 333°
2026-05-07 16:35 38.59907 12.60396 20734 ft 420 kts 333°
2026-05-07 16:36 38.62581 12.58838 21252 ft 424 kts 333°
2026-05-07 16:36 38.65279 12.57264 21766 ft 427 kts 333°
2026-05-07 16:36 38.67997 12.55691 22256 ft 431 kts 333°
2026-05-07 16:36 38.70739 12.54113 22738 ft 434 kts 333°
2026-05-07 16:37 38.73501 12.52525 23205 ft 437 kts 333°
2026-05-07 16:37 38.76280 12.50921 23661 ft 440 kts 333°
2026-05-07 16:37 38.79080 12.49297 24104 ft 443 kts 333°
2026-05-07 16:37 38.81893 12.47664 24539 ft 445 kts 333°
2026-05-07 16:38 38.84701 12.45967 24961 ft 446 kts 328°
2026-05-07 16:38 38.87277 12.43764 25397 ft 445 kts 318°
2026-05-07 16:38 38.89471 12.41046 25828 ft 443 kts 309°
2026-05-07 16:38 38.91531 12.38088 26221 ft 446 kts 308°
2026-05-07 16:39 38.93603 12.35044 26605 ft 448 kts 308°
2026-05-07 16:39 38.95623 12.32050 26984 ft 450 kts 308°
2026-05-07 16:39 38.97682 12.29014 27354 ft 451 kts 308°
2026-05-07 16:39 38.99762 12.25971 27709 ft 453 kts 308°
2026-05-07 16:40 39.01852 12.22925 28058 ft 455 kts 308°
2026-05-07 16:40 39.03947 12.19863 28398 ft 457 kts 308°
2026-05-07 16:40 39.06047 12.16777 28739 ft 458 kts 308°
2026-05-07 16:40 39.08148 12.13681 29066 ft 460 kts 308°
2026-05-07 16:41 39.10261 12.10571 29413 ft 460 kts 308°
2026-05-07 16:41 39.12366 12.07475 29854 ft 459 kts 308°
2026-05-07 16:41 39.14462 12.04391 30309 ft 456 kts 307°
2026-05-07 16:41 39.16553 12.01305 30755 ft 455 kts 307°
2026-05-07 16:42 39.18626 11.98238 31175 ft 453 kts 307°
2026-05-07 16:42 39.20693 11.95175 31585 ft 452 kts 307°
2026-05-07 16:42 39.22759 11.92121 31981 ft 451 kts 307°
2026-05-07 16:42 39.24792 11.89111 32408 ft 449 kts 306°
2026-05-07 16:43 39.26844 11.86071 32818 ft 448 kts 306°
2026-05-07 16:43 39.28882 11.83047 33237 ft 446 kts 306°
2026-05-07 16:43 39.30911 11.80030 33647 ft 444 kts 305°
2026-05-07 16:43 39.32937 11.77009 33903 ft 446 kts 305°
2026-05-07 16:44 39.34976 11.73966 33914 ft 448 kts 305°
2026-05-07 16:44 39.39049 11.67905 33917 ft 442 kts 305°
2026-05-07 16:45 39.43058 11.61915 33924 ft 441 kts 305°
2026-05-07 16:45 39.47070 11.55909 33930 ft 441 kts 305°
2026-05-07 16:46 39.51077 11.49904 33928 ft 440 kts 305°
2026-05-07 16:46 39.55074 11.43895 33929 ft 439 kts 305°
2026-05-07 16:47 39.59031 11.37936 33933 ft 439 kts 305°
2026-05-07 16:47 39.63016 11.31931 33938 ft 439 kts 305°
2026-05-07 16:48 39.66985 11.25934 33949 ft 439 kts 304°
2026-05-07 16:48 39.70960 11.19906 33946 ft 439 kts 304°
2026-05-07 16:49 39.74943 11.13866 33936 ft 440 kts 304°
2026-05-07 16:49 39.78919 11.07830 33935 ft 439 kts 304°
2026-05-07 16:50 39.82891 11.01779 33945 ft 440 kts 304°
2026-05-07 16:50 39.86838 10.95753 33952 ft 439 kts 305°
2026-05-07 16:51 39.90804 10.89692 33938 ft 440 kts 304°
2026-05-07 16:51 39.94766 10.83622 33951 ft 439 kts 304°
2026-05-07 16:52 39.98725 10.77547 33948 ft 439 kts 304°
2026-05-07 16:52 40.02685 10.71457 33950 ft 440 kts 304°
2026-05-07 16:53 40.06618 10.65395 33946 ft 439 kts 305°
2026-05-07 16:53 40.10551 10.59326 33948 ft 437 kts 304°
2026-05-07 16:54 40.14475 10.53249 33952 ft 438 kts 304°
2026-05-07 16:54 40.18411 10.47153 33953 ft 438 kts 304°
2026-05-07 16:55 40.22333 10.41060 33956 ft 438 kts 304°
2026-05-07 16:55 40.26231 10.34994 33962 ft 438 kts 304°
2026-05-07 16:56 40.30151 10.28881 33964 ft 439 kts 304°
2026-05-07 16:56 40.36038 10.19687 33963 ft 438 kts 304°
2026-05-07 16:57 40.39943 10.13557 33972 ft 438 kts 304°
2026-05-07 16:57 40.43851 10.07427 33966 ft 439 kts 304°
2026-05-07 16:58 40.47757 10.01287 33966 ft 438 kts 304°
2026-05-07 16:58 40.49714 9.98202 33708 ft 439 kts 304°
2026-05-07 16:58 40.51656 9.95142 33452 ft 434 kts 304°
2026-05-07 16:59 40.53593 9.92084 33205 ft 435 kts 304°
2026-05-07 16:59 40.55502 9.89065 32956 ft 435 kts 304°
2026-05-07 16:59 40.57439 9.85997 32696 ft 436 kts 304°
2026-05-07 16:59 40.59405 9.82880 32452 ft 437 kts 305°
2026-05-07 17:00 40.61330 9.79830 32206 ft 439 kts 305°
2026-05-07 17:00 40.63281 9.76737 31957 ft 439 kts 305°
2026-05-07 17:00 40.65234 9.73637 31707 ft 441 kts 305°
2026-05-07 17:00 40.67193 9.70523 31463 ft 442 kts 305°
2026-05-07 17:01 40.69154 9.67401 31213 ft 443 kts 305°
2026-05-07 17:01 40.71120 9.64270 30969 ft 444 kts 305°
2026-05-07 17:01 40.73091 9.61130 30724 ft 445 kts 305°
2026-05-07 17:01 40.75062 9.57984 30477 ft 446 kts 305°
2026-05-07 17:02 40.77037 9.54826 30171 ft 448 kts 306°
2026-05-07 17:02 40.79027 9.51640 29465 ft 447 kts 306°
2026-05-07 17:02 40.80994 9.48492 28777 ft 442 kts 306°
2026-05-07 17:02 40.82958 9.45347 28116 ft 449 kts 306°
2026-05-07 17:03 40.84949 9.42151 27435 ft 450 kts 306°
2026-05-07 17:03 40.86945 9.38943 26767 ft 456 kts 306°
2026-05-07 17:03 40.88962 9.35694 26100 ft 457 kts 306°
2026-05-07 17:03 40.90991 9.32427 25433 ft 462 kts 307°
2026-05-07 17:04 40.93108 9.29204 24748 ft 468 kts 313°
2026-05-07 17:04 40.95567 9.26494 24075 ft 463 kts 323°
2026-05-07 17:04 40.98353 9.24421 23398 ft 456 kts 333°
2026-05-07 17:04 41.01222 9.22696 22722 ft 450 kts 333°
2026-05-07 17:05 41.04076 9.21021 22045 ft 448 kts 334°
2026-05-07 17:05 41.06916 9.19372 21382 ft 443 kts 334°
2026-05-07 17:05 41.09727 9.17727 20711 ft 439 kts 334°
2026-05-07 17:05 41.12511 9.16080 19894 ft 437 kts 334°
2026-05-07 17:06 41.15282 9.14428 18997 ft 436 kts 334°
2026-05-07 17:06 41.18038 9.12788 18100 ft 431 kts 334°
2026-05-07 17:06 41.20756 9.11176 17201 ft 424 kts 334°
2026-05-07 17:06 41.23433 9.09591 16304 ft 418 kts 334°
2026-05-07 17:07 41.26072 9.08024 15402 ft 413 kts 335°
2026-05-07 17:07 41.28649 9.06489 14518 ft 408 kts 334°
2026-05-07 17:07 41.31224 9.04955 13622 ft 403 kts 335°
2026-05-07 17:07 41.33745 9.03383 12718 ft 398 kts 330°
2026-05-07 17:08 41.36147 9.01613 11831 ft 392 kts 330°
2026-05-07 17:08 41.38517 8.99856 10925 ft 388 kts 330°
2026-05-07 17:08 41.40858 8.98105 10138 ft 383 kts 330°
2026-05-07 17:08 41.43146 8.96389 9588 ft 368 kts 330°
2026-05-07 17:09 41.45314 8.94766 9039 ft 348 kts 330°
2026-05-07 17:09 41.47380 8.93224 8486 ft 333 kts 330°
2026-05-07 17:09 41.49364 8.91744 7938 ft 320 kts 330°
2026-05-07 17:09 41.51276 8.90314 7387 ft 310 kts 330°
2026-05-07 17:10 41.53136 8.88920 6846 ft 302 kts 330°
2026-05-07 17:10 41.54950 8.87561 6410 ft 296 kts 330°
2026-05-07 17:10 41.56737 8.86225 6039 ft 292 kts 330°
2026-05-07 17:10 41.58496 8.84906 5661 ft 288 kts 330°
2026-05-07 17:11 41.60228 8.83601 5285 ft 284 kts 330°
2026-05-07 17:11 41.61941 8.82311 4917 ft 281 kts 330°
2026-05-07 17:11 41.63634 8.81039 4545 ft 278 kts 330°
2026-05-07 17:11 41.65313 8.79777 4169 ft 276 kts 330°
2026-05-07 17:12 41.66945 8.78550 4027 ft 268 kts 330°
2026-05-07 17:12 41.68561 8.77332 4004 ft 265 kts 330°
2026-05-07 17:12 41.70158 8.76128 4009 ft 262 kts 330°
2026-05-07 17:12 41.71745 8.74929 4007 ft 263 kts 330°
2026-05-07 17:13 41.73361 8.73709 3863 ft 267 kts 330°
2026-05-07 17:13 41.74964 8.72500 3617 ft 261 kts 330°
2026-05-07 17:13 41.76531 8.71319 3369 ft 257 kts 330°
2026-05-07 17:13 41.77556 8.70546 3202 ft 253 kts 330°
2026-05-07 17:14 41.79091 8.69386 2952 ft 252 kts 330°
2026-05-07 17:14 41.80616 8.68235 2997 ft 252 kts 330°
2026-05-07 17:14 41.82146 8.67076 3254 ft 253 kts 330°
2026-05-07 17:14 41.83689 8.65906 3476 ft 256 kts 330°
2026-05-07 17:15 41.85236 8.64732 3497 ft 255 kts 330°
2026-05-07 17:15 41.86775 8.63563 3503 ft 254 kts 330°
2026-05-07 17:15 41.88315 8.62395 3497 ft 255 kts 330°
2026-05-07 17:15 41.89866 8.61217 3508 ft 262 kts 330°
2026-05-07 17:16 41.91508 8.60044 3508 ft 268 kts 333°
2026-05-07 17:16 41.93156 8.58959 3504 ft 258 kts 334°
2026-05-07 17:16 41.94737 8.57939 3512 ft 249 kts 334°
2026-05-07 17:16 41.96332 8.57132 3504 ft 242 kts 352°
2026-05-07 17:17 41.97973 8.57456 3512 ft 241 kts 27°
2026-05-07 17:17 41.99142 8.58992 3392 ft 235 kts 64°
2026-05-07 17:17 41.99704 8.60948 3293 ft 219 kts 71°
2026-05-07 17:17 42.00144 8.62824 3192 ft 202 kts 73°
2026-05-07 17:18 42.00536 8.64552 3088 ft 185 kts 73°
2026-05-07 17:18 42.00789 8.66206 3071 ft 177 kts 93°
2026-05-07 17:18 42.00633 8.67803 3075 ft 170 kts 99°
2026-05-07 17:18 42.00435 8.69303 3042 ft 163 kts 101°
2026-05-07 17:19 42.00235 8.70784 3024 ft 158 kts 101°
2026-05-07 17:19 42.00038 8.72268 2829 ft 161 kts 100°
2026-05-07 17:19 41.99853 8.73682 2559 ft 151 kts 100°
2026-05-07 17:19 41.99667 8.75093 2293 ft 150 kts 99°
2026-05-07 17:20 41.99484 8.76498 2011 ft 152 kts 99°
2026-05-07 17:20 41.99305 8.77874 1744 ft 153 kts 100°
2026-05-07 17:20 41.99124 8.79262 1507 ft 152 kts 100°
2026-05-07 17:20 41.98932 8.80641 1277 ft 149 kts 103°
2026-05-07 17:21 41.98430 8.81865 1108 ft 150 kts 133°
2026-05-07 17:21 41.97566 8.82620 952 ft 152 kts 160°
2026-05-07 17:21 41.96546 8.82739 790 ft 150 kts 189°
2026-05-07 17:21 41.95576 8.82262 593 ft 149 kts 208°
2026-05-07 17:22 41.94642 8.81620 439 ft 152 kts 205°
2026-05-07 17:22 41.93698 8.81048 240 ft 150 kts 204°
2026-05-07 17:22 41.92777 8.80483 44 ft 138 kts 204°
2026-05-07 17:22 41.92049 8.80038 21 ft 72 kts 204°
2026-05-07 17:23 41.91669 8.79811 18 ft 46 kts 205°
2026-05-07 17:23 41.91484 8.79688 16 ft 34 kts 208°
2026-05-07 17:23 41.91267 8.79542 22 ft 32 kts 221°
2026-05-07 17:23 41.91335 8.79373 26 ft 22 kts 335°
2026-05-07 17:24 41.91487 8.79357 26 ft 28 kts 21°
2026-05-07 17:24 41.91669 8.79464 28 ft 28 kts 24°
2026-05-07 17:24 41.91847 8.79573 26 ft 27 kts 25°
2026-05-07 17:24 41.91930 8.79597 25 ft 7 kts 310°
2026-05-07 17:25 41.91955 8.79576 27 ft 0 kts 343°